カタログに戻る

FREGAT DEB

LostHEO
NORAD 45966·DEBRIS·🇷🇺 Russia

打ち上げ Jul 18, 2011 から Baikonur Cosmodrome

Loading…

次のパス (今後24時間)

TLE

古いSource: Space-Track

元期: Aug 20, 2020, 11:58 UTC

1 45966U 11037FX  20233.49927517 -.00002399  00000-0 -40449-2 0  9994
2 45966  51.3395 271.9272 2673030 114.5781 275.5606  9.25136552  2513

AllMySatでFREGAT DEBをリアルタイム追跡

Download on the App Store